Flag for Brazil Weather past 2 weeks in Porto Acre, Acre, Brazil

Now
88 °F

Passing clouds.


Feels Like: 93 °F
Forecast: N/A
Wind: 2 mph from East

Location: Rio Branco Airport

Current Time: Sep 30, 2014 at 5:26:26 PM

Latest Report: Sep 30, 2014 at 5:00 PM


Visibility: N/A

Pressure: 29.80 "Hg

Humidity: 55%

Dew point: 70 °F

Location of Porto AcreLocation

Historic Weather in Porto Acre — Graph

°F

Porto Acre temperature yesterday

Maximum temperature yesterday: 91 °F (at 1:00 PM)
Minimum temperature yesterday: 70 °F (at 4:00 AM)
Average temperature yesterday: 81 °F

Past Weeks' High & Low Weather Summary

 TemperatureHumidityPressure
High93 °F (Sep 19, 2:00 PM)100% (Sep 17, 12:00 AM)30.04 "Hg (Sep 17, 12:00 AM)
Low66 °F (Sep 17, 5:00 AM)22% (Sep 27, 6:00 PM)29.74 "Hg (Sep 19, 3:00 PM)
Average78 °F75%29.88 "Hg
* Reported Sep 15 4:00 PM — Sep 30 4:00 PM, Porto Acre, Weather by CustomWeather, © 2014

Note: Actual official high and low records may vary slightly from our data, if they occured in-between our weather recording intervals... More about our weather records

Advertising

Porto Acre weather history for previous 24 hours

 ConditionsComfort  
Time TempWeatherWind HumidityBarometerVisibility
4:00 PM
Sep 30
91 °FScattered clouds.3 mph44%29.80 "HgN/A
3:00 PM93 °FScattered clouds.8 mph39%29.80 "HgN/A
2:00 PM93 °FScattered clouds.5 mph44%29.83 "HgN/A
1:00 PM93 °FScattered clouds.5 mph41%29.86 "HgN/A
12:00 PM93 °FScattered clouds.5 mph41%29.89 "HgN/A
11:00 AM90 °FScattered clouds.5 mph55%29.95 "HgN/A
10:00 AM88 °FPassing clouds.5 mph52%29.98 "HgN/A
9:00 AM86 °FSunny.5 mph62%29.98 "Hg10 mi
8:00 AM82 °FSunny.7 mph66%29.98 "Hg10 mi
7:00 AM79 °FSunny.No wind74%29.95 "Hg10 mi
6:00 AM73 °FClear.No wind83%29.95 "Hg10 mi
5:00 AM73 °FClear.No wind83%29.92 "Hg10 mi
4:00 AM75 °FClear.5 mph78%29.89 "Hg10 mi
3:00 AM75 °FClear.No wind78%29.89 "Hg10 mi
2:00 AM75 °FClear.No wind78%29.89 "Hg10 mi
1:00 AM73 °FClear.No wind89%29.89 "Hg10 mi
12:00 AM75 °FClear.No wind78%29.89 "Hg10 mi
11:00 PM
Sep 29
75 °FClear.No wind83%29.89 "Hg10 mi
10:00 PM77 °FClear.No wind79%29.89 "Hg10 mi
9:00 PM77 °FClear.No wind79%29.89 "Hg10 mi
8:00 PM79 °FPassing clouds.No wind74%29.86 "HgN/A
7:00 PM79 °FPassing clouds.No wind74%29.83 "HgN/A
6:00 PM86 °FPassing clouds.2 mph55%29.80 "HgN/A
5:00 PM88 °FScattered clouds.3 mph49%29.77 "HgN/A
Weather by CustomWeather, © 2014

See weather overviewHow to use our weather pages